[[{"header":{"parameterUnit":"m.s-1","parameterCategory":1,"la1":30.2992,"la2":30.254,"lo1":-89.0895,"lo2":-89.0443,"dy":0.0025,"dx":0.0025,"nx":19,"ny":19,"refTime":"2026-04-11T03:00:00:Z","depth":0,"parameterNumber":2,"parameterNumberName":"U-component_of_WINDS"},"data":[0,0,0,-1.5189,-1.5189,-1.5193,-1.5193,-1.5216,-1.5216,0,0,0,0,0,0,0,0,0,0,0,-1.5198,-1.5198,-1.5189,-1.5189,-1.5193,-1.5193,-1.5216,-1.5216,0,0,0,0,0,0,0,0,0,0,0,-1.5198,-1.5198,-1.5199,-1.5189,-1.5193,-1.5193,-1.5216,-1.5207,0,0,0,0,0,0,0,0,0,0,-1.52,-1.5218,-1.5198,-1.5199,-1.5189,-1.5193,-1.5193,-1.5206,-1.5207,-1.5222,0,-1.5237,0,-1.5227,-1.5219,-1.5219,0,0,0,-1.5181,-1.5217,-1.5209,-1.5199,-1.5189,-1.5193,-1.5189,-1.5206,-1.5208,-1.5224,-1.5237,-1.5238,-1.5228,-1.5219,-1.522,-1.5329,-1.533,0,0,-1.5181,-1.5204,-1.5208,-1.521,-1.521,-1.5189,-1.5189,-1.5207,-1.5223,-1.5237,-1.5238,-1.5228,-1.522,-1.522,-1.5328,-1.533,0,0,0,-1.5186,-1.5204,-1.5195,-1.521,-1.5209,-1.5189,-1.519,-1.5223,-1.5218,-1.5238,-1.5228,-1.522,-1.522,-1.5327,-1.5329,-1.5395,0,0,0,-1.5185,-1.5207,-1.5196,-1.521,-1.5209,-1.5216,-1.5205,-1.5216,-1.5218,-1.5228,-1.522,-1.5221,-1.5326,-1.5328,-1.5391,-1.5422,0,0,0,-1.5194,-1.5208,-1.5212,-1.5211,-1.5213,-1.5215,-1.5211,-1.5216,-1.5212,-1.5219,-1.5221,-1.5326,-1.5328,-1.5387,-1.5416,-1.5459,0,0,0,-1.521,-1.527,-1.5213,-1.5276,-1.5213,-1.5255,-1.521,-1.524,-1.5254,-1.522,-1.5327,-1.5329,-1.5386,-1.5413,-1.5456,-1.55,-1.552,0,0,-1.5298,-1.5281,-1.5316,-1.5266,-1.5324,-1.5253,-1.5321,-1.5311,-1.5291,-1.5318,-1.532,-1.5392,-1.5416,-1.5458,-1.5624,-1.564,0,0,0,-1.5352,-1.5378,-1.5388,-1.5402,-1.5397,-1.5395,-1.5373,-1.537,-1.5392,-1.5309,-1.5418,-1.5431,-1.5455,-1.5475,-1.5489,-1.5509,-1.5339,-1.5338,-1.5338,-1.5509,-1.548,-1.5537,-1.551,-1.5524,-1.5502,-1.5511,-1.5503,-1.5469,-1.5496,-1.5504,-1.5608,-1.5632,-1.5642,-1.5663,-1.5524,-1.5524,-1.5524,-1.5524,-1.5636,-1.5669,-1.5623,-1.5662,-1.5632,-1.5665,-1.5646,-1.5621,-1.5648,-1.5599,-1.5618,-1.5568,-1.5661,-1.5678,-1.5529,-1.5528,-1.5528,-1.5527,-1.5527,-1.5737,-1.5748,-1.5743,-1.5762,-1.578,-1.575,-1.5778,-1.5749,-1.5722,-1.5741,-1.5748,-1.5746,-1.5743,-1.5746,-1.5746,-1.5747,-1.5747,-1.5747,-1.5748,-1.5844,-1.5836,-1.5863,-1.5864,-1.587,-1.5875,-1.5854,-1.586,-1.5859,-1.5835,-1.5835,-1.58,-1.5675,-1.5645,-1.5753,-1.5752,-1.5751,-1.5751,-1.5751,-1.5985,-1.5949,-1.5991,-1.5998,-1.5997,-1.6018,-1.598,-1.5995,-1.5995,-1.601,-1.5971,-1.5883,-1.5863,-1.5852,-1.5827,-1.5976,-1.5976,-1.5976,-1.5976,-1.6071,-1.6058,-1.6096,-1.6109,-1.6117,-1.6089,-1.6139,-1.6124,-1.6103,-1.6101,-1.6075,-1.6039,-1.6029,-1.6016,-1.6001,-1.5978,-1.6161,-1.6161,-1.6162,-1.6157,-1.6144,-1.6192,-1.6171,-1.6168,-1.6168,-1.6214,-1.6232,-1.62,-1.6169,-1.61,-1.6093,-1.6034,-1.6016,-1.5984,-1.5962,-1.5918,0,0]},{"header":{"parameterUnit":"m.s-1","parameterCategory":1,"la1":30.2992,"la2":30.254,"lo1":-89.0895,"lo2":-89.0443,"dy":0.0025,"dx":0.0025,"nx":19,"ny":19,"refTime":"2026-04-11T03:00:00:Z","depth":0,"parameterNumber":3,"parameterNumberName":"V-component_of_WINDS"},"data":[0,0,0,-1.0614,-1.0615,-1.0662,-1.0663,-1.0722,-1.0722,0,0,0,0,0,0,0,0,0,0,0,-1.0599,-1.0599,-1.0613,-1.0615,-1.0662,-1.0663,-1.0722,-1.0722,0,0,0,0,0,0,0,0,0,0,0,-1.0598,-1.0599,-1.0599,-1.0615,-1.0662,-1.0663,-1.0722,-1.0686,0,0,0,0,0,0,0,0,0,0,-1.064,-1.0626,-1.0599,-1.0599,-1.0615,-1.0662,-1.0663,-1.0685,-1.0688,-1.07,0,-1.0709,0,-1.0717,-1.0726,-1.0726,0,0,0,-1.0615,-1.0622,-1.0636,-1.0599,-1.0616,-1.0662,-1.0641,-1.0687,-1.0691,-1.0705,-1.071,-1.0713,-1.0718,-1.0727,-1.0727,-1.0789,-1.0789,0,0,-1.0613,-1.0607,-1.0633,-1.0639,-1.0631,-1.0639,-1.0642,-1.0689,-1.0695,-1.071,-1.0714,-1.0719,-1.0727,-1.0727,-1.0789,-1.0789,0,0,0,-1.0605,-1.0605,-1.0617,-1.0636,-1.0645,-1.0641,-1.0644,-1.0693,-1.0698,-1.0715,-1.0719,-1.0727,-1.0728,-1.0789,-1.0789,-1.0797,0,0,0,-1.0603,-1.06,-1.0616,-1.0613,-1.0644,-1.067,-1.0647,-1.0694,-1.07,-1.0719,-1.0727,-1.0729,-1.0788,-1.0789,-1.0796,-1.0801,0,0,0,-1.0596,-1.0599,-1.0606,-1.0613,-1.0633,-1.0669,-1.0676,-1.0696,-1.0703,-1.0726,-1.0729,-1.0788,-1.0789,-1.0795,-1.08,-1.0816,0,0,0,-1.0586,-1.0612,-1.0606,-1.0637,-1.0633,-1.0673,-1.0676,-1.0707,-1.0728,-1.0728,-1.0788,-1.0789,-1.0795,-1.0799,-1.0815,-1.0829,-1.0834,0,0,-1.0616,-1.0615,-1.0634,-1.063,-1.067,-1.0666,-1.0708,-1.0733,-1.074,-1.0772,-1.0774,-1.0796,-1.08,-1.0816,-1.0863,-1.0867,0,0,0,-1.0641,-1.0654,-1.0666,-1.0686,-1.0706,-1.0723,-1.0742,-1.0751,-1.0779,-1.0756,-1.0806,-1.0809,-1.0818,-1.0825,-1.0828,-1.0837,-1.0792,-1.0792,-1.0792,-1.0675,-1.0683,-1.0714,-1.0727,-1.0747,-1.0766,-1.0782,-1.0798,-1.08,-1.0812,-1.0822,-1.0849,-1.0857,-1.086,-1.0868,-1.0829,-1.0829,-1.0829,-1.0829,-1.0719,-1.0739,-1.0741,-1.0772,-1.078,-1.0806,-1.0825,-1.0826,-1.0852,-1.0843,-1.0851,-1.0841,-1.0864,-1.0872,-1.083,-1.083,-1.083,-1.083,-1.083,-1.0742,-1.0753,-1.0763,-1.0793,-1.0814,-1.0827,-1.0851,-1.0857,-1.0864,-1.0872,-1.0883,-1.0883,-1.0884,-1.0877,-1.0877,-1.0877,-1.0877,-1.0877,-1.0877,-1.0762,-1.0774,-1.0793,-1.0816,-1.0829,-1.0847,-1.0866,-1.088,-1.0896,-1.0899,-1.0899,-1.09,-1.0864,-1.0855,-1.0879,-1.0879,-1.0878,-1.0878,-1.0878,-1.0805,-1.0796,-1.0826,-1.084,-1.0866,-1.0887,-1.0894,-1.0921,-1.0933,-1.0944,-1.0944,-1.0915,-1.0916,-1.0913,-1.0906,-1.0942,-1.0942,-1.0942,-1.0942,-1.0825,-1.0825,-1.0858,-1.0878,-1.0899,-1.0909,-1.0943,-1.0957,-1.0971,-1.0979,-1.0975,-1.0965,-1.0962,-1.0964,-1.0961,-1.0954,-1.1001,-1.1001,-1.1001,-1.0851,-1.0854,-1.0882,-1.0895,-1.0916,-1.0934,-1.0966,-1.0989,-1.1003,-1.1004,-1.0985,-1.0983,-1.0968,-1.0962,-1.0963,-1.0957,-1.0945,0,0]}]]